Flag for Botswana Weather past 2 weeks in Gaborone, Botswana

Now
57 °F

Clear.


Feels Like: 56 °F
Forecast: 45 / 74 °F
Wind: 6 mph from West

Location: Seretse Khama International Airport

Current Time: Jul 30, 2015 at 12:40:08 AM

Latest Report: Jul 29, 2015 at 11:00 PM


Visibility: 10 mi

Pressure: 30.04 "Hg (26.64 "Hg at 1009m altitude)

Humidity: 39%

Dew point: 32 °F

Location of GaboroneLocation

Historic Weather in Gaborone — Graph

°F

Gaborone temperature yesterday

Maximum temperature yesterday: 84 °F (at 3:00 PM)
Minimum temperature yesterday: 41 °F (at 7:00 AM)
Average temperature yesterday: 61 °F

Past Weeks' High & Low Weather Summary

 TemperatureHumidityPressure
High84 °F (Jul 29, 3:00 PM)100% (Jul 25, 10:00 PM)30.36 "Hg (Jul 25, 10:00 PM)
Low30 °F (Jul 18, 7:00 AM)8% (Jul 18, 3:00 PM)29.89 "Hg (Jul 16, 4:00 PM)
Average58 °F38%30.18 "Hg
* Reported Jul 14 11:00 PM — Jul 29 11:00 PM, Gaborone, Weather by CustomWeather, © 2015

Note: Actual official high and low records may vary slightly from our data, if they occured in-between our weather recording intervals... More about our weather records

Advertising

Gaborone weather history for previous 24 hours

 ConditionsComfort  
Time TempWeatherWind HumidityBarometerVisibility
11:00 PM
Wed, Jul 29
57 °FClear.6 mph39%30.04 "Hg10 mi
5:00 PM81 °FPassing clouds.8 mph16%30.01 "HgN/A
4:00 PM82 °FSunny.12 mph15%30.01 "Hg10 mi
3:00 PM84 °FPassing clouds.9 mph14%30.01 "HgN/A
2:00 PM82 °FPassing clouds.14 mph16%30.07 "HgN/A
1:00 PM77 °FSunny.7 mph15%30.07 "Hg10 mi
12:00 PM72 °FPassing clouds.9 mph29%30.09 "HgN/A
11:00 AM66 °FPassing clouds.7 mph32%30.15 "HgN/A
10:00 AM59 °FPassing clouds.7 mph42%30.15 "HgN/A
9:00 AM54 °FSunny.9 mph41%30.15 "Hg10 mi
8:00 AM48 °FSunny.8 mph46%30.15 "Hg10 mi
7:00 AM41 °FSunny.9 mph57%30.15 "Hg10 mi
6:00 AM43 °FPassing clouds.7 mph53%30.12 "HgN/A
5:00 AM45 °FClear.7 mph49%30.12 "Hg10 mi
3:00 AM46 °FClear.6 mph43%30.12 "Hg10 mi
2:00 AM48 °FClear.8 mph43%30.15 "Hg10 mi
1:00 AM46 °FClear.7 mph46%30.15 "Hg10 mi
Weather by CustomWeather, © 2015

See weather overviewHow to use our weather pages